Simultaneous Nadir Overpasses (SNOs) Predictions

Prediction of SNOs between NOAA-20 and METOP-C Satellite Orbit:

Table of predicted SNOs for the next 14.0 days since TLE Epoch: 11/27/2021
Index Date (NOAA-20) Time (NOAA-20) Lat,Lon (NOAA-20) SZA (NOAA-20 ) Date (METOP-C) Time (METOP-C) Lat,Lon (METOP-C) SZA (METOP-C ) Distance(km) Time Diff (sec)
1 12/01/2021 07:36:31 73.38, 56.20 95.25 12/01/2021 07:37:37 73.32, 58.99 95.11 89.10 66
2 12/01/2021 08:27:13 -73.28,-136.26 84.85 12/01/2021 08:28:21 -73.18,-133.98 85.02 74.10 68
3 12/01/2021 09:17:55 73.09, 31.48 94.95 12/01/2021 09:19:05 73.00, 32.94 94.81 48.69 70
4 12/01/2021 10:08:37 -72.99,-161.00 85.15 12/01/2021 10:09:48 -72.91,-159.91 85.27 36.68 71
5 12/01/2021 10:59:19 72.79, 6.73 94.65 12/01/2021 11:00:32 72.72, 7.03 94.56 12.51 73
6 12/01/2021 11:50:01 -72.70, 174.25 85.45 12/01/2021 11:51:14 -72.69, 174.29 85.47 1.57 73
7 12/01/2021 12:40:46 72.70, -18.45 94.56 12/01/2021 12:41:53 72.70, -18.35 94.55 3.24 67
8 12/01/2021 13:31:29 -72.65, 148.96 85.49 12/01/2021 13:32:35 -72.67, 148.91 85.48 2.51 66
9 12/01/2021 14:22:15 72.66, -43.74 94.53 12/01/2021 14:23:15 72.68, -43.73 94.54 2.89 60
10 12/01/2021 15:12:59 -72.66, 123.57 85.47 12/01/2021 15:13:57 -72.65, 123.53 85.49 1.92 58
11 12/01/2021 16:03:45 72.66, -69.13 94.54 12/01/2021 16:04:37 72.66, -69.12 94.54 0.46 52
12 12/01/2021 16:54:29 -72.67, 98.18 85.45 12/01/2021 16:55:18 -72.68, 98.25 85.45 2.62 49
13 12/01/2021 17:45:15 72.67, -94.52 94.56 12/01/2021 17:45:59 72.64, -94.50 94.53 3.51 44
14 12/01/2021 18:35:59 -72.68, 72.79 85.43 12/01/2021 18:36:40 -72.66, 72.87 85.45 3.31 41
15 12/01/2021 19:26:44 72.63,-119.80 94.53 12/01/2021 19:27:21 72.62,-119.88 94.52 2.65 37
16 12/01/2021 20:17:28 -72.63, 47.50 85.46 12/01/2021 20:18:02 -72.64, 47.49 85.46 0.68 34
17 12/01/2021 21:08:14 72.64,-145.20 94.55 12/01/2021 21:08:42 72.65,-145.16 94.56 2.01 28
18 12/01/2021 21:58:58 -72.64, 22.11 85.45 12/01/2021 21:59:24 -72.62, 22.11 85.47 2.69 26
19 12/01/2021 22:49:44 72.65,-170.59 94.57 12/01/2021 22:50:04 72.63,-170.54 94.55 2.30 20
20 12/01/2021 23:40:27 -72.60, -3.18 85.48 12/01/2021 23:40:46 -72.60, -3.28 85.48 3.33 19
21 12/02/2021 00:31:13 72.60, 164.13 94.53 12/02/2021 00:31:26 72.61, 164.08 94.54 1.74 13
22 12/02/2021 01:21:57 -72.61, -28.57 85.46 12/02/2021 01:22:07 -72.63, -28.55 85.44 2.30 10
23 12/02/2021 02:12:43 72.61, 138.74 94.55 12/02/2021 02:12:48 72.59, 138.70 94.53 2.62 5
24 12/02/2021 03:03:27 -72.62, -53.96 85.44 12/02/2021 03:03:29 -72.61, -53.94 85.45 1.17 2
25 12/02/2021 03:54:13 72.62, 113.35 94.57 12/02/2021 03:54:09 72.62, 113.42 94.57 2.56 4
26 12/02/2021 04:44:56 -72.57, -79.24 85.48 12/02/2021 04:44:51 -72.59, -79.32 85.46 2.86 5
27 12/02/2021 05:35:42 72.58, 88.06 94.54 12/02/2021 05:35:31 72.60, 88.04 94.56 2.71 11
28 12/02/2021 06:26:26 -72.58,-104.64 85.46 12/02/2021 06:26:13 -72.57,-104.70 85.47 2.63 13
29 12/02/2021 07:17:12 72.58, 62.67 94.56 12/02/2021 07:16:53 72.58, 62.66 94.55 0.58 19
30 12/02/2021 08:07:56 -72.59,-130.03 85.44 12/02/2021 08:07:34 -72.60,-129.98 85.43 1.88 22
31 12/02/2021 08:58:42 72.59, 37.28 94.58 12/02/2021 08:58:15 72.56, 37.28 94.55 3.70 27
32 12/02/2021 09:49:26 -72.60,-155.42 85.42 12/02/2021 09:48:56 -72.58,-155.36 85.44 3.03 30
33 12/02/2021 10:40:11 72.55, 11.99 94.54 12/02/2021 10:39:37 72.54, 11.90 94.54 3.30 34
34 12/02/2021 11:30:55 -72.56, 179.30 85.45 12/02/2021 11:30:18 -72.56, 179.26 85.45 1.16 37
35 12/02/2021 12:21:41 72.56, -13.40 94.56 12/02/2021 12:20:58 72.57, -13.38 94.58 1.46 43
36 12/02/2021 13:12:25 -72.56, 153.91 85.43 12/02/2021 13:11:40 -72.54, 153.88 85.46 3.11 45
37 12/02/2021 14:03:11 72.57, -38.79 94.58 12/02/2021 14:02:20 72.55, -38.76 94.57 2.15 51
38 12/02/2021 14:53:55 -72.57, 128.52 85.42 12/02/2021 14:53:01 -72.57, 128.60 85.42 2.95 54
39 12/02/2021 15:44:40 72.52, -64.08 94.54 12/02/2021 15:43:42 72.53, -64.14 94.56 2.18 58
40 12/02/2021 16:35:24 -72.53, 103.23 85.45 12/02/2021 16:34:23 -72.55, 103.22 85.43 1.96 61
41 12/02/2021 17:26:10 72.53, -89.47 94.56 12/02/2021 17:25:04 72.51, -89.52 94.55 3.15 66
42 12/02/2021 18:16:54 -72.54, 77.84 85.43 12/02/2021 18:15:45 -72.53, 77.84 85.43 1.23 69
43 12/02/2021 19:07:40 72.54,-114.86 94.58 12/02/2021 19:06:25 72.54,-114.80 94.59 1.98 75
44 12/02/2021 19:58:22 -72.44, 52.65 85.52 12/02/2021 19:57:08 -72.45, 52.36 85.49 9.91 74
45 12/02/2021 20:49:04 72.24,-139.64 94.28 12/02/2021 20:47:52 72.26,-140.69 94.34 35.56 72
46 12/02/2021 21:39:46 -72.15, 27.86 85.82 12/02/2021 21:38:35 -72.18, 26.48 85.74 47.32 71
47 12/02/2021 22:30:28 71.94,-164.44 93.98 12/02/2021 22:29:20 71.93,-166.66 94.04 76.41 68
48 12/02/2021 23:21:10 -71.85, 3.05 86.12 12/02/2021 23:20:03 -71.85, 0.51 86.04 87.96 67



Historial Predications of SNOs between NOAA-20 and METOP-C
